| time (UTC) | temp C | wind direction | speed KPH | gust KPH | rain 1hr cm | rain 24hr cm | rain mn cm | humidity % | barometer mb |
| 20260506193130 | 18 | 0 | 0.0 | 0.0 | 0.00 | 0.00 | 0.00 | 6 | 1004.7 |
| 20260506192629 | 18 | 0 | 0.0 | 0.0 | 0.00 | 0.00 | 0.00 | 6 | 1004.6 |
| 20260506192129 | 18 | 0 | 0.0 | 0.0 | 0.00 | 0.00 | 0.00 | 6 | 1004.8 |
| 20260506191629 | 18 | 0 | 0.0 | 0.0 | 0.00 | 0.00 | 0.00 | 6 | 1004.7 |
| 20260506191128 | 18 | 0 | 0.0 | 0.0 | 0.00 | 0.00 | 0.00 | 6 | 1004.6 |
| 20260506190628 | 18 | 0 | 0.0 | 0.0 | 0.00 | 0.00 | 0.00 | 6 | 1004.7 |
| 20260506190128 | 18 | 0 | 0.0 | 0.0 | 0.00 | 0.00 | 0.00 | 6 | 1004.6 |
| 20260506185627 | 18 | 0 | 0.0 | 0.0 | 0.00 | 0.00 | 0.00 | 6 | 1004.5 |
| 20260506185127 | 19 | 0 | 0.0 | 0.0 | 0.00 | 0.00 | 0.00 | 6 | 1004.5 |
| 20260506184627 | 19 | 0 | 0.0 | 0.0 | 0.00 | 0.00 | 0.00 | 6 | 1004.4 |
| 20260506184126 | 19 | 0 | 0.0 | 0.0 | 0.00 | 0.00 | 0.00 | 6 | 1004.4 |
| 20260506183626 | 20 | 0 | 0.0 | 0.0 | 0.00 | 0.00 | 0.00 | 5 | 1004.5 |
| 20260506183126 | 20 | 0 | 0.0 | 0.0 | 0.00 | 0.00 | 0.00 | 5 | 1004.1 |
| 20260506182625 | 20 | 0 | 0.0 | 0.0 | 0.00 | 0.00 | 0.00 | 5 | 1004.1 |
| 20260506182125 | 20 | 0 | 0.0 | 0.0 | 0.00 | 0.00 | 0.00 | 5 | 1004.3 |
| 20260506181625 | 20 | 0 | 0.0 | 0.0 | 0.00 | 0.00 | 0.00 | 5 | 1004.2 |
| 20260506181124 | 21 | 0 | 0.0 | 0.0 | 0.00 | 0.00 | 0.00 | 5 | 1004.2 |
| 20260506180624 | 21 | 0 | 0.0 | 0.0 | 0.00 | 0.00 | 0.00 | 5 | 1004.2 |
| 20260506180124 | 21 | 0 | 0.0 | 0.0 | 0.00 | 0.00 | 0.00 | 5 | 1004.1 |
| 20260506175623 | 21 | 0 | 0.0 | 0.0 | 0.00 | 0.00 | 0.00 | 5 | 1004.1 |
| 20260506175123 | 21 | 0 | 0.0 | 0.0 | 0.00 | 0.00 | 0.00 | 5 | 1004.3 |
| 20260506174623 | 21 | 0 | 0.0 | 0.0 | 0.00 | 0.00 | 0.00 | 5 | 1004.1 |
| 20260506174122 | 21 | 0 | 0.0 | 0.0 | 0.00 | 0.00 | 0.00 | 5 | 1004.1 |
| 20260506173622 | 21 | 0 | 0.0 | 0.0 | 0.00 | 0.00 | 0.00 | 5 | 1004.1 |
| 20260506173122 | 21 | 0 | 0.0 | 0.0 | 0.00 | 0.00 | 0.00 | 5 | 1004.0 |
| 20260506172621 | 21 | 0 | 0.0 | 0.0 | 0.00 | 0.00 | 0.00 | 5 | 1003.9 |
| 20260506172121 | 21 | 0 | 0.0 | 0.0 | 0.00 | 0.00 | 0.00 | 5 | 1004.0 |
| 20260506171621 | 22 | 0 | 0.0 | 0.0 | 0.00 | 0.00 | 0.00 | 5 | 1003.8 |
| 20260506171120 | 22 | 281 | 1.6 | 1.6 | 0.00 | 0.00 | 0.00 | 5 | 1003.9 |
| 20260506170620 | 22 | 0 | 0.0 | 0.0 | 0.00 | 0.00 | 0.00 | 5 | 1003.9 |
| 20260506170120 | 22 | 241 | 1.6 | 3.2 | 0.00 | 0.00 | 0.00 | 5 | 1003.9 |
| 20260506165619 | 22 | 0 | 0.0 | 0.0 | 0.00 | 0.00 | 0.00 | 5 | 1004.0 |
| 20260506165119 | 22 | 0 | 0.0 | 0.0 | 0.00 | 0.00 | 0.00 | 4 | 1003.8 |
| 20260506164619 | 22 | 0 | 0.0 | 0.0 | 0.00 | 0.00 | 0.00 | 4 | 1003.7 |
| 20260506164118 | 22 | 0 | 0.0 | 0.0 | 0.00 | 0.00 | 0.00 | 4 | 1003.9 |
| 20260506163618 | 22 | 0 | 0.0 | 0.0 | 0.00 | 0.00 | 0.00 | 4 | 1003.6 |
| 20260506163118 | 22 | 0 | 0.0 | 0.0 | 0.00 | 0.00 | 0.00 | 4 | 1003.9 |
| 20260506162617 | 22 | 350 | 0.0 | 1.6 | 0.00 | 0.00 | 0.00 | 4 | 1003.6 |
| 20260506162117 | 23 | 0 | 0.0 | 0.0 | 0.00 | 0.00 | 0.00 | 4 | 1003.5 |
| 20260506161617 | 23 | 238 | 1.6 | 3.2 | 0.00 | 0.00 | 0.00 | 4 | 1003.6 |
| 20260506161116 | 23 | 29 | 0.0 | 1.6 | 0.00 | 0.00 | 0.00 | 4 | 1003.7 |
| 20260506160616 | 23 | 0 | 0.0 | 0.0 | 0.00 | 0.00 | 0.00 | 4 | 1003.4 |
| 20260506160116 | 23 | 0 | 0.0 | 0.0 | 0.00 | 0.00 | 0.00 | 4 | 1003.4 |
| 20260506155615 | 23 | 351 | 1.6 | 3.2 | 0.00 | 0.00 | 0.00 | 4 | 1003.5 |
| 20260506155115 | 23 | 0 | 0.0 | 0.0 | 0.00 | 0.00 | 0.00 | 4 | 1003.7 |
| 20260506154615 | 23 | 28 | 0.0 | 1.6 | 0.00 | 0.00 | 0.00 | 4 | 1003.8 |
| 20260506154114 | 23 | 333 | 0.0 | 1.6 | 0.00 | 0.00 | 0.00 | 4 | 1003.9 |
| 20260506153614 | 23 | 0 | 0.0 | 0.0 | 0.00 | 0.00 | 0.00 | 4 | 1003.8 |
| 20260506153114 | 23 | 326 | 0.0 | 1.6 | 0.00 | 0.00 | 0.00 | 4 | 1003.7 |
| 20260506152613 | 23 | 0 | 0.0 | 0.0 | 0.00 | 0.00 | 0.00 | 4 | 1003.8 |
| 20260506152113 | 23 | 0 | 0.0 | 0.0 | 0.00 | 0.00 | 0.00 | 4 | 1003.9 |
| 20260506151613 | 23 | 0 | 0.0 | 0.0 | 0.00 | 0.00 | 0.00 | 4 | 1003.8 |
| 20260506151112 | 23 | 348 | 0.0 | 1.6 | 0.00 | 0.00 | 0.00 | 4 | 1003.8 |
| 20260506150612 | 23 | 357 | 0.0 | 1.6 | 0.00 | 0.00 | 0.00 | 4 | 1003.8 |
| 20260506150112 | 23 | 0 | 0.0 | 0.0 | 0.00 | 0.00 | 0.00 | 4 | 1003.6 |
| 20260506145611 | 24 | 0 | 0.0 | 0.0 | 0.00 | 0.00 | 0.00 | 4 | 1003.9 |
| 20260506145111 | 24 | 0 | 0.0 | 0.0 | 0.00 | 0.00 | 0.00 | 4 | 1003.9 |
| 20260506144611 | 23 | 0 | 0.0 | 0.0 | 0.00 | 0.00 | 0.00 | 4 | 1003.8 |
| 20260506144110 | 23 | 1 | 0.0 | 1.6 | 0.00 | 0.00 | 0.00 | 4 | 1003.8 |
| 20260506143610 | 24 | 10 | 0.0 | 1.6 | 0.00 | 0.00 | 0.00 | 4 | 1003.7 |
| 20260506143110 | 24 | 0 | 0.0 | 0.0 | 0.00 | 0.00 | 0.00 | 4 | 1003.8 |
| 20260506142609 | 23 | 11 | 0.0 | 1.6 | 0.00 | 0.00 | 0.00 | 4 | 1003.8 |
| 20260506142109 | 23 | 302 | 0.0 | 1.6 | 0.00 | 0.00 | 0.00 | 4 | 1003.6 |
| 20260506141609 | 23 | 0 | 0.0 | 0.0 | 0.00 | 0.00 | 0.00 | 4 | 1003.9 |
| 20260506141108 | 23 | 24 | 0.0 | 1.6 | 0.00 | 0.00 | 0.00 | 4 | 1003.7 |
| 20260506140608 | 23 | 0 | 0.0 | 0.0 | 0.00 | 0.00 | 0.00 | 4 | 1003.8 |
| 20260506140108 | 23 | 0 | 0.0 | 0.0 | 0.00 | 0.00 | 0.00 | 4 | 1003.7 |
| 20260506135607 | 23 | 8 | 0.0 | 1.6 | 0.00 | 0.00 | 0.00 | 4 | 1003.7 |
| 20260506135107 | 23 | 0 | 0.0 | 0.0 | 0.00 | 0.00 | 0.00 | 4 | 1003.7 |
| 20260506134607 | 23 | 0 | 0.0 | 0.0 | 0.00 | 0.00 | 0.00 | 4 | 1003.7 |
| 20260506134106 | 23 | 0 | 0.0 | 0.0 | 0.00 | 0.00 | 0.00 | 4 | 1003.6 |
| 20260506133606 | 23 | 230 | 1.6 | 3.2 | 0.00 | 0.00 | 0.00 | 4 | 1003.7 |
| 20260506133106 | 23 | 309 | 0.0 | 1.6 | 0.00 | 0.00 | 0.00 | 4 | 1003.6 |
| 20260506132605 | 23 | 215 | 1.6 | 3.2 | 0.00 | 0.00 | 0.00 | 4 | 1003.7 |
| 20260506132105 | 23 | 0 | 0.0 | 0.0 | 0.00 | 0.00 | 0.00 | 4 | 1003.4 |
| 20260506131605 | 23 | 35 | 0.0 | 1.6 | 0.00 | 0.00 | 0.00 | 4 | 1003.6 |
| 20260506131104 | 23 | 0 | 0.0 | 0.0 | 0.00 | 0.00 | 0.00 | 4 | 1003.7 |
| 20260506130604 | 23 | 308 | 0.0 | 1.6 | 0.00 | 0.00 | 0.00 | 4 | 1003.7 |
| 20260506130104 | 23 | 0 | 0.0 | 0.0 | 0.00 | 0.00 | 0.00 | 4 | 1003.6 |
| 20260506125603 | 24 | 0 | 0.0 | 0.0 | 0.00 | 0.00 | 0.00 | 4 | 1003.6 |
| 20260506125103 | 23 | 212 | 0.0 | 1.6 | 0.00 | 0.00 | 0.00 | 4 | 1003.6 |
| 20260506124603 | 23 | 201 | 4.8 | 6.4 | 0.00 | 0.00 | 0.00 | 4 | 1004.0 |
| 20260506124102 | 23 | 75 | 0.0 | 1.6 | 0.00 | 0.00 | 0.00 | 4 | 1003.7 |
| 20260506123602 | 23 | 0 | 0.0 | 0.0 | 0.00 | 0.00 | 0.00 | 4 | 1003.9 |
| 20260506123102 | 23 | 0 | 0.0 | 0.0 | 0.00 | 0.00 | 0.00 | 4 | 1004.0 |
| 20260506122601 | 23 | 214 | 0.0 | 1.6 | 0.00 | 0.00 | 0.00 | 4 | 1003.9 |
| 20260506122101 | 23 | 0 | 0.0 | 0.0 | 0.00 | 0.00 | 0.00 | 4 | 1003.7 |
| 20260506121601 | 23 | 7 | 1.6 | 3.2 | 0.00 | 0.00 | 0.00 | 4 | 1003.8 |
| 20260506121100 | 23 | 0 | 0.0 | 0.0 | 0.00 | 0.00 | 0.00 | 4 | 1003.6 |
| 20260506120600 | 23 | 133 | 0.0 | 1.6 | 0.00 | 0.00 | 0.00 | 4 | 1003.7 |
| 20260506120100 | 23 | 14 | 0.0 | 1.6 | 0.00 | 0.00 | 0.00 | 4 | 1003.9 |
| 20260506115559 | 23 | 0 | 0.0 | 0.0 | 0.00 | 0.00 | 0.00 | 4 | 1003.6 |
| 20260506115059 | 23 | 0 | 0.0 | 0.0 | 0.00 | 0.00 | 0.00 | 4 | 1003.5 |
| 20260506114559 | 24 | 31 | 0.0 | 1.6 | 0.00 | 0.00 | 0.00 | 4 | 1003.8 |
| 20260506114058 | 25 | 0 | 0.0 | 0.0 | 0.00 | 0.00 | 0.00 | 4 | 1003.6 |
| 20260506113558 | 25 | 0 | 0.0 | 0.0 | 0.00 | 0.00 | 0.00 | 4 | 1003.4 |
| 20260506113057 | 23 | 0 | 0.0 | 0.0 | 0.00 | 0.00 | 0.00 | 4 | 1003.4 |
| 20260506112557 | 23 | 0 | 0.0 | 0.0 | 0.00 | 0.00 | 0.00 | 4 | 1004.0 |
| 20260506112057 | 23 | 8 | 0.0 | 1.6 | 0.00 | 0.00 | 0.00 | 4 | 1003.7 |
| 20260506111557 | 23 | 0 | 0.0 | 0.0 | 0.00 | 0.00 | 0.00 | 4 | 1003.6 |
| 20260506111056 | 23 | 247 | 3.2 | 6.4 | 0.00 | 0.00 | 0.00 | 4 | 1003.8 |
| 20260506110556 | 23 | 221 | 1.6 | 3.2 | 0.00 | 0.00 | 0.00 | 4 | 1003.5 |
| 20260506110055 | 24 | 179 | 1.6 | 3.2 | 0.00 | 0.00 | 0.00 | 4 | 1003.7 |
| 20260506105555 | 24 | 86 | 1.6 | 3.2 | 0.00 | 0.00 | 0.00 | 4 | 1003.6 |
| 20260506105055 | 23 | 0 | 0.0 | 0.0 | 0.00 | 0.00 | 0.00 | 4 | 1003.7 |
| 20260506104554 | 23 | 214 | 1.6 | 3.2 | 0.00 | 0.00 | 0.00 | 4 | 1003.7 |
| 20260506104054 | 23 | 19 | 0.0 | 1.6 | 0.00 | 0.00 | 0.00 | 4 | 1003.7 |
| 20260506103554 | 23 | 152 | 0.0 | 1.6 | 0.00 | 0.00 | 0.00 | 4 | 1003.3 |
| 20260506103053 | 23 | 161 | 0.0 | 3.2 | 0.00 | 0.00 | 0.00 | 4 | 1003.5 |
| 20260506102553 | 23 | 0 | 0.0 | 0.0 | 0.00 | 0.00 | 0.00 | 4 | 1003.6 |
| 20260506102053 | 23 | 37 | 0.0 | 1.6 | 0.00 | 0.00 | 0.00 | 4 | 1003.8 |
| 20260506101552 | 23 | 227 | 3.2 | 6.4 | 0.00 | 0.00 | 0.00 | 4 | 1003.4 |
| 20260506101052 | 23 | 119 | 0.0 | 1.6 | 0.00 | 0.00 | 0.00 | 4 | 1003.7 |
| 20260506100552 | 23 | 0 | 0.0 | 0.0 | 0.00 | 0.00 | 0.00 | 4 | 1003.8 |
| 20260506100052 | 23 | 350 | 1.6 | 4.8 | 0.00 | 0.00 | 0.00 | 4 | 1003.6 |
| 20260506095551 | 23 | 0 | 0.0 | 0.0 | 0.00 | 0.00 | 0.00 | 4 | 1003.9 |
| 20260506095051 | 23 | 0 | 0.0 | 0.0 | 0.00 | 0.00 | 0.00 | 4 | 1003.7 |
| 20260506094551 | 23 | 0 | 0.0 | 0.0 | 0.00 | 0.00 | 0.00 | 4 | 1003.6 |
| 20260506094050 | 23 | 0 | 0.0 | 0.0 | 0.00 | 0.00 | 0.00 | 4 | 1003.9 |
| 20260506093550 | 23 | 0 | 0.0 | 0.0 | 0.00 | 0.00 | 0.00 | 4 | 1003.7 |
| 20260506093050 | 23 | 259 | 3.2 | 4.8 | 0.00 | 0.00 | 0.00 | 4 | 1003.6 |
| 20260506092549 | 22 | 0 | 0.0 | 0.0 | 0.00 | 0.00 | 0.00 | 4 | 1003.5 |
| 20260506092049 | 22 | 0 | 0.0 | 0.0 | 0.00 | 0.00 | 0.00 | 4 | 1003.8 |
| 20260506091549 | 22 | 25 | 0.0 | 1.6 | 0.00 | 0.00 | 0.00 | 4 | 1003.5 |
| 20260506091048 | 22 | 0 | 0.0 | 0.0 | 0.00 | 0.00 | 0.00 | 4 | 1003.6 |
| 20260506090548 | 23 | 0 | 0.0 | 0.0 | 0.00 | 0.00 | 0.00 | 4 | 1003.5 |
| 20260506090048 | 23 | 0 | 0.0 | 0.0 | 0.00 | 0.00 | 0.00 | 4 | 1003.6 |
| 20260506085547 | 23 | 0 | 0.0 | 0.0 | 0.00 | 0.00 | 0.00 | 4 | 1003.6 |
| 20260506085047 | 23 | 0 | 0.0 | 0.0 | 0.00 | 0.00 | 0.00 | 4 | 1003.6 |
| 20260506084547 | 23 | 0 | 0.0 | 0.0 | 0.00 | 0.00 | 0.00 | 3 | 1003.7 |
| 20260506084046 | 23 | 343 | 0.0 | 1.6 | 0.00 | 0.00 | 0.00 | 4 | 1003.5 |
| 20260506083546 | 23 | 0 | 0.0 | 0.0 | 0.00 | 0.00 | 0.00 | 4 | 1003.4 |
| 20260506083046 | 23 | 0 | 0.0 | 0.0 | 0.00 | 0.00 | 0.00 | 4 | 1003.4 |
| 20260506082545 | 23 | 0 | 0.0 | 0.0 | 0.00 | 0.00 | 0.00 | 4 | 1003.4 |
| 20260506082045 | 23 | 0 | 0.0 | 0.0 | 0.00 | 0.00 | 0.00 | 4 | 1003.3 |
| 20260506081545 | 22 | 0 | 0.0 | 0.0 | 0.00 | 0.00 | 0.00 | 4 | 1003.3 |
| 20260506081044 | 21 | 0 | 0.0 | 0.0 | 0.00 | 0.00 | 0.00 | 4 | 1003.4 |
| 20260506080544 | 22 | 0 | 0.0 | 0.0 | 0.00 | 0.00 | 0.00 | 4 | 1003.3 |
| 20260506073042 | 21 | 18 | 0.0 | 1.6 | 0.00 | 0.00 | 0.00 | 4 | 1003.9 |
| 20260506072541 | 22 | 0 | 0.0 | 0.0 | 0.00 | 0.00 | 0.00 | 4 | 1003.9 |
| 20260506072041 | 22 | 0 | 0.0 | 0.0 | 0.00 | 0.00 | 0.00 | 4 | 1003.9 |
| 20260506071541 | 22 | 188 | 3.2 | 4.8 | 0.00 | 0.00 | 0.00 | 4 | 1003.9 |
| 20260506071040 | 22 | 7 | 1.6 | 3.2 | 0.00 | 0.00 | 0.00 | 4 | 1003.8 |
| 20260506070540 | 21 | 0 | 0.0 | 0.0 | 0.00 | 0.00 | 0.00 | 4 | 1004.0 |
| 20260506062037 | 18 | 0 | 0.0 | 0.0 | 0.00 | 0.00 | 0.00 | 5 | 1004.4 |
| 20260506061536 | 18 | 0 | 0.0 | 0.0 | 0.00 | 0.00 | 0.00 | 5 | 1004.2 |
| 20260506061036 | 17 | 0 | 0.0 | 0.0 | 0.00 | 0.00 | 0.00 | 6 | 1004.4 |
| 20260506060536 | 17 | 0 | 0.0 | 0.0 | 0.00 | 0.00 | 0.00 | 6 | 1004.5 |
| 20260506051032 | 12 | 0 | 0.0 | 0.0 | 0.00 | 0.00 | 0.00 | 8 | 1005.1 |
| 20260506050532 | 12 | 0 | 0.0 | 0.0 | 0.00 | 0.00 | 0.00 | 8 | 1004.6 |
| 20260506045031 | 11 | 0 | 0.0 | 0.0 | 0.00 | 0.00 | 0.00 | 9 | 1004.4 |
| 20260506044531 | 11 | 21 | 0.0 | 1.6 | 0.00 | 0.00 | 0.00 | 9 | 1004.6 |
| 20260506044030 | 11 | 0 | 0.0 | 0.0 | 0.00 | 0.00 | 0.00 | 9 | 1004.6 |
| 20260506043530 | 11 | 0 | 0.0 | 0.0 | 0.00 | 0.00 | 0.00 | 9 | 1004.7 |
| 20260506043030 | 11 | 232 | 0.0 | 1.6 | 0.00 | 0.00 | 0.00 | 9 | 1004.7 |
| 20260506042529 | 11 | 0 | 0.0 | 0.0 | 0.00 | 0.00 | 0.00 | 9 | 1004.9 |
| 20260506042029 | 11 | 0 | 0.0 | 0.0 | 0.00 | 0.00 | 0.00 | 9 | 1005.0 |
| 20260506041529 | 11 | 0 | 0.0 | 0.0 | 0.00 | 0.00 | 0.00 | 9 | 1005.1 |
| 20260506041028 | 11 | 0 | 0.0 | 0.0 | 0.00 | 0.00 | 0.00 | 9 | 1004.9 |
| 20260506040528 | 11 | 0 | 0.0 | 0.0 | 0.00 | 0.00 | 0.00 | 9 | 1005.0 |
| 20260506040028 | 11 | 0 | 0.0 | 0.0 | 0.00 | 0.00 | 0.00 | 9 | 1005.2 |
| 20260506035527 | 11 | 0 | 0.0 | 0.0 | 0.00 | 0.00 | 0.00 | 9 | 1005.0 |
| 20260506035027 | 11 | 0 | 0.0 | 0.0 | 0.00 | 0.00 | 0.00 | 9 | 1005.1 |
| 20260506034527 | 11 | 0 | 0.0 | 0.0 | 0.00 | 0.00 | 0.00 | 9 | 1005.1 |
| 20260506034026 | 11 | 0 | 0.0 | 0.0 | 0.00 | 0.00 | 0.00 | 9 | 1005.2 |
| 20260506033526 | 11 | 0 | 0.0 | 0.0 | 0.00 | 0.00 | 0.00 | 9 | 1005.3 |
| 20260506033026 | 11 | 224 | 1.6 | 3.2 | 0.00 | 0.00 | 0.00 | 8 | 1004.9 |
| 20260506032525 | 11 | 45 | 0.0 | 1.6 | 0.00 | 0.00 | 0.00 | 8 | 1005.1 |
| 20260506032025 | 11 | 0 | 0.0 | 0.0 | 0.00 | 0.00 | 0.00 | 8 | 1005.4 |
| 20260506031525 | 11 | 0 | 0.0 | 0.0 | 0.00 | 0.00 | 0.00 | 8 | 1005.4 |
| 20260506031024 | 10 | 0 | 0.0 | 0.0 | 0.00 | 0.00 | 0.00 | 8 | 1005.3 |
| 20260506030524 | 10 | 0 | 0.0 | 0.0 | 0.00 | 0.00 | 0.00 | 8 | 1005.4 |
| 20260506030024 | 11 | 0 | 0.0 | 0.0 | 0.00 | 0.00 | 0.00 | 8 | 1005.3 |
| 20260506025523 | 11 | 0 | 0.0 | 0.0 | 0.00 | 0.00 | 0.00 | 8 | 1005.2 |
| 20260506025023 | 10 | 0 | 0.0 | 0.0 | 0.00 | 0.00 | 0.00 | 8 | 1005.4 |
| 20260506024523 | 10 | 0 | 0.0 | 0.0 | 0.00 | 0.00 | 0.00 | 8 | 1005.3 |
| 20260506024022 | 11 | 5 | 0.0 | 1.6 | 0.00 | 0.00 | 0.00 | 8 | 1005.5 |
| 20260506023522 | 11 | 0 | 0.0 | 0.0 | 0.00 | 0.00 | 0.00 | 8 | 1005.4 |
| 20260506023022 | 11 | 0 | 0.0 | 0.0 | 0.00 | 0.00 | 0.00 | 8 | 1005.5 |
| 20260506022521 | 11 | 0 | 0.0 | 0.0 | 0.00 | 0.00 | 0.00 | 8 | 1005.4 |
| 20260506022021 | 11 | 53 | 0.0 | 1.6 | 0.00 | 0.00 | 0.00 | 8 | 1005.8 |
| 20260506021521 | 11 | 0 | 0.0 | 0.0 | 0.00 | 0.00 | 0.00 | 8 | 1005.8 |
| 20260506021020 | 11 | 0 | 0.0 | 0.0 | 0.00 | 0.00 | 0.00 | 8 | 1005.5 |
| 20260506020520 | 11 | 0 | 0.0 | 0.0 | 0.00 | 0.00 | 0.00 | 8 | 1005.6 |
| 20260506020020 | 11 | 0 | 0.0 | 0.0 | 0.00 | 0.00 | 0.00 | 8 | 1005.5 |
| 20260506015519 | 11 | 0 | 0.0 | 0.0 | 0.00 | 0.00 | 0.00 | 8 | 1005.5 |
| 20260506015019 | 11 | 0 | 0.0 | 0.0 | 0.00 | 0.00 | 0.00 | 8 | 1005.6 |
| 20260506014519 | 11 | 0 | 0.0 | 0.0 | 0.00 | 0.00 | 0.00 | 8 | 1005.6 |
| 20260506014018 | 11 | 0 | 0.0 | 0.0 | 0.00 | 0.00 | 0.00 | 8 | 1005.8 |
| 20260506013518 | 11 | 0 | 0.0 | 0.0 | 0.00 | 0.00 | 0.00 | 8 | 1005.4 |
| 20260506013018 | 11 | 0 | 0.0 | 0.0 | 0.00 | 0.00 | 0.00 | 8 | 1005.8 |
| 20260506012517 | 11 | 0 | 0.0 | 0.0 | 0.00 | 0.00 | 0.00 | 8 | 1005.9 |
| 20260506012017 | 11 | 0 | 0.0 | 0.0 | 0.00 | 0.00 | 0.00 | 8 | 1005.5 |
| 20260506011517 | 11 | 134 | 0.0 | 1.6 | 0.00 | 0.00 | 0.00 | 8 | 1005.6 |
| 20260506011016 | 11 | 0 | 0.0 | 0.0 | 0.00 | 0.00 | 0.00 | 8 | 1005.8 |
| 20260506010516 | 11 | 0 | 0.0 | 0.0 | 0.00 | 0.00 | 0.00 | 8 | 1005.8 |
| 20260506010016 | 12 | 0 | 0.0 | 0.0 | 0.00 | 0.00 | 0.00 | 8 | 1005.7 |
| 20260506005515 | 12 | 0 | 0.0 | 0.0 | 0.00 | 0.00 | 0.00 | 8 | 1005.4 |
| 20260506005015 | 12 | 0 | 0.0 | 0.0 | 0.00 | 0.00 | 0.00 | 8 | 1005.4 |
| 20260506004515 | 12 | 0 | 0.0 | 0.0 | 0.00 | 0.00 | 0.00 | 8 | 1005.4 |
| 20260506004014 | 12 | 0 | 0.0 | 0.0 | 0.00 | 0.00 | 0.00 | 8 | 1005.4 |
| 20260506003514 | 12 | 359 | 0.0 | 1.6 | 0.00 | 0.00 | 0.00 | 8 | 1005.4 |
| 20260506003014 | 12 | 334 | 0.0 | 1.6 | 0.00 | 0.00 | 0.00 | 8 | 1005.4 |
| 20260506002513 | 12 | 48 | 3.2 | 4.8 | 0.00 | 0.00 | 0.00 | 8 | 1005.5 |
| 20260506002013 | 12 | 0 | 0.0 | 0.0 | 0.00 | 0.00 | 0.00 | 8 | 1005.5 |
| 20260506001512 | 12 | 0 | 0.0 | 0.0 | 0.00 | 0.00 | 0.00 | 8 | 1005.6 |
| 20260506001012 | 12 | 0 | 0.0 | 0.0 | 0.00 | 0.00 | 0.00 | 8 | 1005.4 |
| 20260506000512 | 13 | 289 | 0.0 | 1.6 | 0.00 | 0.00 | 0.00 | 8 | 1005.5 |
| 20260506000011 | 13 | 11 | 0.0 | 1.6 | 0.00 | 0.00 | 0.00 | 8 | 1005.2 |
| 20260505235511 | 13 | 0 | 0.0 | 0.0 | 0.00 | 0.00 | 0.00 | 8 | 1005.0 |
| 20260505235011 | 13 | 0 | 0.0 | 0.0 | 0.00 | 0.00 | 0.00 | 8 | 1005.3 |
| 20260505234510 | 13 | 0 | 0.0 | 0.0 | 0.00 | 0.00 | 0.00 | 8 | 1005.5 |
| 20260505234010 | 13 | 0 | 0.0 | 0.0 | 0.00 | 0.00 | 0.00 | 8 | 1005.4 |
| 20260505233510 | 13 | 0 | 0.0 | 0.0 | 0.00 | 0.00 | 0.00 | 8 | 1005.2 |
| 20260505233010 | 13 | 0 | 0.0 | 0.0 | 0.00 | 0.00 | 0.00 | 8 | 1005.2 |
| 20260505232509 | 14 | 35 | 1.6 | 1.6 | 0.00 | 0.00 | 0.00 | 8 | 1005.3 |
| 20260505232009 | 14 | 0 | 0.0 | 0.0 | 0.00 | 0.00 | 0.00 | 8 | 1005.4 |
| 20260505231509 | 14 | 0 | 0.0 | 0.0 | 0.00 | 0.00 | 0.00 | 8 | 1005.4 |
| 20260505231008 | 14 | 0 | 0.0 | 0.0 | 0.00 | 0.00 | 0.00 | 8 | 1005.2 |
| 20260505230508 | 15 | 0 | 0.0 | 0.0 | 0.00 | 0.00 | 0.00 | 8 | 1005.3 |
| 20260505230008 | 15 | 0 | 0.0 | 0.0 | 0.00 | 0.00 | 0.00 | 8 | 1005.2 |
| 20260505225507 | 15 | 355 | 0.0 | 1.6 | 0.00 | 0.00 | 0.00 | 8 | 1005.1 |
| 20260505225007 | 15 | 0 | 0.0 | 0.0 | 0.00 | 0.00 | 0.00 | 8 | 1005.1 |
| 20260505224506 | 15 | 0 | 0.0 | 0.0 | 0.00 | 0.00 | 0.00 | 8 | 1005.2 |
| 20260505224006 | 15 | 0 | 0.0 | 0.0 | 0.00 | 0.00 | 0.00 | 8 | 1005.2 |
| 20260505223506 | 15 | 41 | 0.0 | 1.6 | 0.00 | 0.00 | 0.00 | 8 | 1005.2 |
| 20260505223005 | 15 | 0 | 0.0 | 0.0 | 0.00 | 0.00 | 0.00 | 8 | 1005.3 |
| 20260505222505 | 15 | 0 | 0.0 | 0.0 | 0.00 | 0.00 | 0.00 | 8 | 1005.3 |
| 20260505222005 | 15 | 0 | 0.0 | 0.0 | 0.00 | 0.00 | 0.00 | 7 | 1005.3 |
| 20260505221504 | 15 | 0 | 0.0 | 0.0 | 0.00 | 0.00 | 0.00 | 7 | 1005.4 |
| 20260505221004 | 16 | 0 | 0.0 | 0.0 | 0.00 | 0.00 | 0.00 | 7 | 1005.3 |
| 20260505220504 | 16 | 0 | 0.0 | 0.0 | 0.00 | 0.00 | 0.00 | 7 | 1005.3 |
| 20260505220004 | 16 | 50 | 1.6 | 3.2 | 0.00 | 0.00 | 0.00 | 7 | 1005.2 |
| 20260505215503 | 16 | 0 | 0.0 | 0.0 | 0.00 | 0.00 | 0.00 | 7 | 1005.5 |
| 20260505215003 | 16 | 0 | 0.0 | 0.0 | 0.00 | 0.00 | 0.00 | 7 | 1005.2 |
| 20260505214502 | 16 | 1 | 0.0 | 1.6 | 0.00 | 0.00 | 0.00 | 7 | 1005.2 |
| 20260505214002 | 16 | 17 | 0.0 | 1.6 | 0.00 | 0.00 | 0.00 | 7 | 1005.1 |
| 20260505213502 | 17 | 0 | 0.0 | 0.0 | 0.00 | 0.00 | 0.00 | 7 | 1005.2 |
| 20260505213001 | 17 | 0 | 0.0 | 0.0 | 0.00 | 0.00 | 0.00 | 7 | 1005.2 |
| 20260505212501 | 17 | 3 | 1.6 | 3.2 | 0.00 | 0.00 | 0.00 | 7 | 1005.3 |
| 20260505212001 | 17 | 0 | 0.0 | 0.0 | 0.00 | 0.00 | 0.00 | 7 | 1004.9 |
| 20260505211500 | 17 | 0 | 0.0 | 0.0 | 0.00 | 0.00 | 0.00 | 7 | 1005.2 |
| 20260505211000 | 17 | 71 | 0.0 | 1.6 | 0.00 | 0.00 | 0.00 | 7 | 1005.1 |
| 20260505210500 | 17 | 0 | 0.0 | 0.0 | 0.00 | 0.00 | 0.00 | 7 | 1005.0 |
| 20260505205959 | 17 | 312 | 0.0 | 1.6 | 0.00 | 0.00 | 0.00 | 7 | 1005.2 |
| 20260505205459 | 17 | 66 | 0.0 | 3.2 | 0.00 | 0.00 | 0.00 | 7 | 1004.6 |
| 20260505204959 | 18 | 54 | 0.0 | 4.8 | 0.00 | 0.00 | 0.00 | 7 | 1004.9 |
| 20260505204459 | 18 | 0 | 0.0 | 0.0 | 0.00 | 0.00 | 0.00 | 7 | 1004.9 |
| 20260505203958 | 18 | 0 | 0.0 | 0.0 | 0.00 | 0.00 | 0.00 | 7 | 1005.0 |
| 20260505203458 | 18 | 0 | 0.0 | 0.0 | 0.00 | 0.00 | 0.00 | 7 | 1004.9 |
| 20260505202958 | 18 | 33 | 0.0 | 1.6 | 0.00 | 0.00 | 0.00 | 6 | 1005.0 |
| 20260505202457 | 18 | 0 | 0.0 | 0.0 | 0.00 | 0.00 | 0.00 | 6 | 1005.0 |
| 20260505201957 | 18 | 333 | 0.0 | 1.6 | 0.00 | 0.00 | 0.00 | 6 | 1004.8 |
| 20260505201456 | 18 | 25 | 0.0 | 1.6 | 0.00 | 0.00 | 0.00 | 6 | 1004.9 |
| 20260505200956 | 19 | 0 | 0.0 | 0.0 | 0.00 | 0.00 | 0.00 | 6 | 1004.6 |
| 20260505200456 | 19 | 27 | 1.6 | 3.2 | 0.00 | 0.00 | 0.00 | 6 | 1004.5 |
| 20260505195956 | 20 | 38 | 0.0 | 1.6 | 0.00 | 0.00 | 0.00 | 5 | 1004.8 |
| 20260505195455 | 20 | 354 | 0.0 | 1.6 | 0.00 | 0.00 | 0.00 | 5 | 1004.3 |
| 20260505194955 | 20 | 229 | 3.2 | 3.2 | 0.00 | 0.00 | 0.00 | 4 | 1004.4 |
| 20260505194455 | 20 | 336 | 0.0 | 1.6 | 0.00 | 0.00 | 0.00 | 4 | 1004.1 |
| 20260505193954 | 20 | 229 | 1.6 | 3.2 | 0.00 | 0.00 | 0.00 | 3 | 1004.1 |